| time (UTC) | temp F | wind direction | speed MPH | gust MPH | rain 1hr in | rain 24hr in | rain mn in | humidity % | barometer mb |
| 20260504184547 | 69 | 181 | 5.0 | 12.0 | 0.00 | 0.00 | 0.00 | 45 | 1010.5 |
| 20260504183056 | 68 | 211 | 3.0 | 12.0 | 0.00 | 0.00 | 0.00 | 47 | 1010.6 |
| 20260504181543 | 69 | 176 | 3.0 | 10.0 | 0.00 | 0.00 | 0.00 | 47 | 1010.9 |
| 20260504180112 | 68 | 215 | 5.0 | 15.0 | 0.00 | 0.00 | 0.00 | 45 | 1011.0 |
| 20260504174541 | 69 | 179 | 4.0 | 17.0 | 0.00 | 0.00 | 0.00 | 44 | 1011.2 |
| 20260504173040 | 67 | 104 | 6.0 | 12.0 | 0.00 | 0.00 | 0.00 | 45 | 1011.1 |
| 20260504171545 | 67 | 179 | 6.0 | 17.0 | 0.00 | 0.00 | 0.00 | 44 | 1011.3 |
| 20260504081512 | 50 | 195 | 2.0 | 7.0 | 0.00 | 0.00 | 0.00 | 57 | 1012.9 |
| 20260504050002 | 45 | 207 | 2.0 | 5.0 | 0.00 | 0.00 | 0.00 | 70 | 1012.3 |
| 20260504044505 | 45 | 188 | 1.0 | 4.0 | 0.00 | 0.00 | 0.00 | 69 | 1012.2 |
| 20260504043001 | 45 | 188 | 1.0 | 4.0 | 0.00 | 0.00 | 0.00 | 68 | 1012.2 |
| 20260504041501 | 45 | 192 | 2.0 | 4.0 | 0.00 | 0.00 | 0.00 | 68 | 1012.2 |
| 20260504040003 | 45 | 190 | 1.0 | 3.0 | 0.00 | 0.00 | 0.00 | 67 | 1012.2 |
| 20260504034617 | 46 | 191 | 1.0 | 4.0 | 0.00 | 0.00 | 0.00 | 65 | 1012.2 |
| 20260504033105 | 46 | 196 | 1.0 | 3.0 | 0.00 | 0.00 | 0.00 | 65 | 1012.0 |
| 20260504031604 | 46 | 197 | 1.0 | 3.0 | 0.00 | 0.00 | 0.00 | 64 | 1012.1 |
| 20260504030058 | 48 | 186 | 1.0 | 4.0 | 0.00 | 0.00 | 0.00 | 58 | 1012.1 |
| 20260504024559 | 46 | 196 | 2.0 | 5.0 | 0.00 | 0.00 | 0.00 | 64 | 1012.0 |
| 20260504023057 | 45 | 283 | 1.0 | 2.0 | 0.00 | 0.00 | 0.00 | 69 | 1012.1 |
| 20260504021601 | 46 | 283 | 0.0 | 3.0 | 0.00 | 0.00 | 0.00 | 67 | 1012.0 |
| 20260504020112 | 46 | 283 | 1.0 | 2.0 | 0.00 | 0.00 | 0.00 | 66 | 1012.0 |
| 20260504014602 | 47 | 283 | 0.0 | 3.0 | 0.00 | 0.00 | 0.00 | 63 | 1011.9 |
| 20260504013104 | 47 | 283 | 1.0 | 2.0 | 0.00 | 0.00 | 0.00 | 62 | 1011.8 |
| 20260504011554 | 48 | 283 | 1.0 | 2.0 | 0.00 | 0.00 | 0.00 | 60 | 1011.6 |
| 20260504010051 | 50 | 283 | 0.0 | 2.0 | 0.00 | 0.00 | 0.00 | 56 | 1011.4 |
| 20260504004550 | 51 | 283 | 1.0 | 3.0 | 0.00 | 0.00 | 0.00 | 53 | 1011.2 |
| 20260504003049 | 52 | 283 | 1.0 | 2.0 | 0.00 | 0.00 | 0.00 | 49 | 1011.0 |
| 20260504001551 | 54 | 283 | 1.0 | 2.0 | 0.00 | 0.00 | 0.00 | 45 | 1010.7 |
| 20260504000052 | 55 | 283 | 1.0 | 2.0 | 0.00 | 0.00 | 0.00 | 40 | 1010.5 |
| 20260503234548 | 56 | 283 | 1.0 | 4.0 | 0.00 | 0.00 | 0.00 | 37 | 1010.3 |
| 20260503233048 | 57 | 280 | 0.0 | 3.0 | 0.00 | 0.00 | 0.00 | 34 | 1010.3 |
| 20260503231547 | 58 | 279 | 1.0 | 6.0 | 0.00 | 0.00 | 0.00 | 34 | 1010.1 |
| 20260503224547 | 59 | 360 | 3.0 | 11.0 | 0.00 | 0.00 | 0.00 | 31 | 1010.1 |
| 20260503223046 | 59 | 319 | 3.0 | 11.0 | 0.00 | 0.00 | 0.00 | 34 | 1009.9 |
| 20260503221544 | 58 | 313 | 5.0 | 11.0 | 0.00 | 0.00 | 0.00 | 36 | 1009.8 |
| 20260503220045 | 59 | 349 | 6.0 | 11.0 | 0.00 | 0.00 | 0.00 | 36 | 1009.9 |
| 20260503214544 | 59 | 342 | 5.0 | 10.0 | 0.00 | 0.00 | 0.00 | 36 | 1009.8 |
| 20260503213041 | 58 | 315 | 4.0 | 10.0 | 0.00 | 0.00 | 0.00 | 36 | 1009.7 |
| 20260503211603 | 58 | 327 | 6.0 | 14.0 | 0.00 | 0.00 | 0.00 | 42 | 1009.8 |
| 20260503210043 | 58 | 321 | 7.0 | 17.0 | 0.00 | 0.00 | 0.00 | 43 | 1009.7 |
| 20260503204542 | 57 | 9 | 7.0 | 11.0 | 0.00 | 0.00 | 0.00 | 43 | 1009.6 |
| 20260503203047 | 57 | 321 | 8.0 | 15.0 | 0.00 | 0.00 | 0.00 | 40 | 1009.7 |
| 20260503201538 | 57 | 314 | 6.0 | 16.0 | 0.00 | 0.00 | 0.00 | 38 | 1009.7 |
| 20260503200052 | 56 | 279 | 4.0 | 16.0 | 0.00 | 0.00 | 0.00 | 42 | 1009.9 |
| 20260503194535 | 56 | 322 | 8.0 | 16.0 | 0.00 | 0.00 | 0.00 | 41 | 1010.0 |
| 20260503193037 | 56 | 355 | 6.0 | 19.0 | 0.00 | 0.00 | 0.00 | 41 | 1010.1 |
| 20260503191539 | 55 | 5 | 10.0 | 22.0 | 0.00 | 0.00 | 0.00 | 43 | 1010.3 |
| 20260503190034 | 55 | 350 | 10.0 | 20.0 | 0.00 | 0.00 | 0.00 | 42 | 1010.3 |